Time,TemperatureF,DewpointF,PressureIn,WindDirection,WindDirectionDegrees,WindSpeedMPH,WindSpeedGustMPH,Humidity,HourlyPrecipIn,Conditions,Clouds,dailyrainin,SoftwareType,DateUTC
2013-11-09 00:23:00,39.0,32.0,30.17,SSE,158,3.0,8.0,77,0.00,,,0.04,,2013-11-09 05:23:00,
2013-11-09 00:53:00,39.0,33.0,30.15,SSE,156,4.0,10.0,78,0.00,,,0.04,,2013-11-09 05:53:00,
2013-11-09 01:23:00,39.0,32.0,30.13,SSE,159,5.0,11.0,77,0.00,,,0.04,,2013-11-09 06:23:00,
2013-11-09 01:54:00,40.0,32.0,30.11,South,169,4.0,10.0,74,0.00,,,0.04,,2013-11-09 06:54:00,
2013-11-09 02:03:00,40.0,32.0,30.11,South,169,4.0,10.0,74,0.00,,,0.04,,2013-11-09 07:03:00,
2013-11-09 02:12:00,40.0,32.0,30.11,South,169,4.0,10.0,74,0.00,,,0.04,,2013-11-09 07:12:00,
2013-11-09 02:22:00,40.0,32.0,30.11,South,169,4.0,10.0,74,0.00,,,0.04,,2013-11-09 07:22:00,
2013-11-09 02:42:00,42.0,32.0,30.08,South,170,6.0,11.0,67,0.00,,,0.04,,2013-11-09 07:42:00,
2013-11-09 02:53:00,42.0,32.0,30.08,South,170,6.0,11.0,67,0.00,,,0.04,,2013-11-09 07:53:00,
2013-11-09 03:22:00,43.0,32.0,30.06,South,175,6.0,15.0,65,0.00,,,0.04,,2013-11-09 08:22:00,
2013-11-09 03:42:00,43.0,32.0,30.04,South,171,9.0,18.0,64,0.00,,,0.04,,2013-11-09 08:42:00,
2013-11-09 03:52:00,43.0,32.0,30.04,South,171,9.0,18.0,64,0.00,,,0.04,,2013-11-09 08:52:00,
2013-11-09 04:22:00,43.0,32.0,30.00,South,178,7.0,17.0,65,0.00,,,0.04,,2013-11-09 09:22:00,
2013-11-09 04:53:00,42.0,31.0,30.00,South,177,6.0,16.0,65,0.00,,,0.04,,2013-11-09 09:53:00,
2013-11-09 05:23:00,42.0,31.0,29.98,South,172,6.0,14.0,65,0.00,,,0.04,,2013-11-09 10:23:00,
2013-11-09 05:32:00,42.0,31.0,29.98,South,172,6.0,14.0,65,0.00,,,0.04,,2013-11-09 10:32:00,
2013-11-09 05:52:00,43.0,32.0,29.97,South,183,7.0,17.0,65,0.00,,,0.04,,2013-11-09 10:52:00,
2013-11-09 06:03:00,43.0,32.0,29.97,South,183,7.0,17.0,65,0.00,,,0.04,,2013-11-09 11:03:00,
2013-11-09 06:22:00,44.0,32.0,29.96,South,189,6.0,15.0,63,0.00,,,0.04,,2013-11-09 11:22:00,
2013-11-09 06:52:00,44.0,33.0,29.95,South,189,6.0,15.0,64,0.00,,,0.04,,2013-11-09 11:52:00,
2013-11-09 07:22:00,44.0,33.0,29.94,SSW,197,6.0,20.0,65,0.00,,,0.04,,2013-11-09 12:22:00,
2013-11-09 07:42:00,43.0,32.0,29.94,SSW,193,6.0,13.0,66,0.00,,,0.04,,2013-11-09 12:42:00,
2013-11-09 07:52:00,43.0,32.0,29.94,SSW,193,6.0,13.0,66,0.00,,,0.04,,2013-11-09 12:52:00,
2013-11-09 08:22:00,43.0,33.0,29.93,SSW,196,6.0,19.0,67,0.00,,,0.04,,2013-11-09 13:22:00,
2013-11-09 08:42:00,43.0,33.0,29.93,SSW,195,6.0,19.0,68,0.00,,,0.04,,2013-11-09 13:42:00,
2013-11-09 08:52:00,43.0,33.0,29.93,SSW,195,6.0,19.0,68,0.00,,,0.04,,2013-11-09 13:52:00,
2013-11-09 09:11:00,44.0,34.0,29.92,SSW,213,5.0,12.0,68,0.00,,,0.04,,2013-11-09 14:11:00,
2013-11-09 09:22:00,44.0,34.0,29.92,SSW,213,5.0,12.0,68,0.00,,,0.04,,2013-11-09 14:22:00,
2013-11-09 09:42:00,46.0,36.0,29.91,SW,219,7.0,19.0,67,0.00,,,0.04,,2013-11-09 14:42:00,
2013-11-09 09:52:00,46.0,36.0,29.91,SW,219,7.0,19.0,67,0.00,,,0.04,,2013-11-09 14:52:00,
2013-11-09 10:22:00,49.0,37.0,29.89,SW,220,6.0,19.0,63,0.00,,,0.03,,2013-11-09 15:22:00,
2013-11-09 10:54:00,50.0,39.0,29.88,SSW,210,6.0,13.0,65,0.00,,,0.02,,2013-11-09 15:54:00,
2013-11-09 11:24:00,50.0,39.0,29.88,WSW,242,5.0,16.0,66,0.00,,,0.01,,2013-11-09 16:24:00,
2013-11-09 11:53:00,52.0,41.0,29.87,WSW,245,7.0,23.0,65,0.00,,,0.00,,2013-11-09 16:53:00,
2013-11-09 12:13:00,52.0,40.0,29.87,SW,234,8.0,26.0,64,0.00,,,0.00,,2013-11-09 17:13:00,
2013-11-09 12:24:00,52.0,40.0,29.87,SW,234,8.0,26.0,64,0.00,,,0.00,,2013-11-09 17:24:00,
2013-11-09 12:52:00,52.0,41.0,29.86,SW,232,8.0,18.0,67,0.00,,,0.00,,2013-11-09 17:52:00,
2013-11-09 13:12:00,53.0,43.0,29.86,WSW,252,7.0,24.0,68,0.00,,,0.00,,2013-11-09 18:12:00,
2013-11-09 13:23:00,53.0,43.0,29.86,WSW,252,7.0,24.0,68,0.00,,,0.00,,2013-11-09 18:23:00,
2013-11-09 13:32:00,53.0,43.0,29.86,WSW,252,7.0,24.0,68,0.00,,,0.00,,2013-11-09 18:32:00,
2013-11-09 13:52:00,54.0,43.0,29.86,WSW,252,5.0,17.0,65,0.00,,,0.00,,2013-11-09 18:52:00,
2013-11-09 14:23:00,53.0,41.0,29.86,WSW,253,10.0,24.0,64,0.00,,,0.00,,2013-11-09 19:23:00,
2013-11-09 14:52:00,53.0,42.0,29.87,West,263,9.0,22.0,66,0.00,,,0.00,,2013-11-09 19:52:00,
2013-11-09 15:22:00,52.0,41.0,29.88,West,260,5.0,17.0,67,0.00,,,0.00,,2013-11-09 20:22:00,
2013-11-09 15:42:00,52.0,41.0,29.88,WSW,258,10.0,23.0,66,0.00,,,0.00,,2013-11-09 20:42:00,
2013-11-09 15:52:00,52.0,41.0,29.88,WSW,255,7.0,19.0,66,0.00,,,0.00,,2013-11-09 20:52:00,
2013-11-09 16:22:00,52.0,41.0,29.89,West,264,7.0,24.0,66,0.00,,,0.00,,2013-11-09 21:22:00,
2013-11-09 16:54:00,52.0,41.0,29.89,WSW,258,7.0,22.0,65,0.00,,,0.00,,2013-11-09 21:54:00,
2013-11-09 17:13:00,52.0,41.0,29.90,WSW,247,7.0,15.0,65,0.00,,,0.00,,2013-11-09 22:13:00,
2013-11-09 17:24:00,52.0,41.0,29.90,WSW,247,7.0,15.0,65,0.00,,,0.00,,2013-11-09 22:24:00,
2013-11-09 17:33:00,52.0,41.0,29.90,WSW,247,7.0,15.0,65,0.00,,,0.00,,2013-11-09 22:33:00,
2013-11-09 17:43:00,52.0,41.0,29.90,WSW,247,7.0,15.0,65,0.00,,,0.00,,2013-11-09 22:43:00,
2013-11-09 17:54:00,52.0,41.0,29.91,West,260,5.0,19.0,66,0.00,,,0.00,,2013-11-09 22:54:00,
2013-11-09 18:22:00,52.0,41.0,29.91,West,260,5.0,17.0,67,0.00,,,0.00,,2013-11-09 23:22:00,
2013-11-09 18:53:00,52.0,42.0,29.92,WSW,256,4.0,13.0,68,0.00,,,0.00,,2013-11-09 23:53:00,
2013-11-09 19:12:00,52.0,42.0,29.93,West,272,5.0,13.0,68,0.00,,,0.00,,2013-11-10 00:12:00,
2013-11-09 19:22:00,51.0,41.0,29.93,West,268,7.0,14.0,69,0.00,,,0.00,,2013-11-10 00:22:00,
2013-11-09 19:52:00,50.0,41.0,29.94,West,264,5.0,18.0,71,0.00,,,0.00,,2013-11-10 00:52:00,
2013-11-09 20:22:00,50.0,41.0,29.95,West,260,6.0,18.0,72,0.00,,,0.00,,2013-11-10 01:22:00,
2013-11-09 20:42:00,49.0,40.0,29.95,West,270,5.0,20.0,71,0.00,,,0.00,,2013-11-10 01:42:00,
2013-11-09 20:52:00,49.0,40.0,29.95,West,270,5.0,20.0,71,0.00,,,0.00,,2013-11-10 01:52:00,
2013-11-09 21:22:00,49.0,39.0,29.95,West,267,7.0,17.0,69,0.00,,,0.00,,2013-11-10 02:22:00,
2013-11-09 21:52:00,49.0,40.0,29.95,WSW,258,5.0,15.0,71,0.00,,,0.00,,2013-11-10 02:52:00,
2013-11-09 22:22:00,49.0,39.0,29.95,West,273,6.0,17.0,69,0.00,,,0.00,,2013-11-10 03:22:00,
2013-11-09 22:54:00,49.0,40.0,29.96,West,271,7.0,20.0,70,0.00,,,0.00,,2013-11-10 03:54:00,
2013-11-09 23:02:00,-999.0,-99.9,29.96,West,271,7.0,20.0,-999,-99.99,,,-99.99,,2013-11-10 04:02:00,
2013-11-09 23:23:00,48.0,39.0,29.96,West,266,6.0,17.0,72,0.00,,,0.00,,2013-11-10 04:23:00,
2013-11-09 23:52:00,47.0,38.0,29.96,West,266,7.0,19.0,71,0.00,,,0.00,,2013-11-10 04:52:00,